Time,TemperatureF,DewpointF,PressureIn,WindDirection,WindDirectionDegrees,WindSpeedMPH,WindSpeedGustMPH,Humidity,HourlyPrecipIn,Conditions,Clouds,dailyrainin,SoftwareType,DateUTC
2013-08-24 00:03:00,59.9,56.3,29.91,WNW,292,0.0,0.0,88,0.00,,---,21.19,VWS V14.01,2013-08-24 07:03:00,
2013-08-24 00:08:00,59.9,56.3,29.91,WNW,292,0.0,0.0,88,0.00,,---,21.19,VWS V14.01,2013-08-24 07:08:00,
2013-08-24 00:13:00,59.9,56.0,29.91,WNW,292,0.0,0.0,87,0.00,,---,21.19,VWS V14.01,2013-08-24 07:13:00,
2013-08-24 00:18:00,59.9,56.0,29.88,WNW,292,0.0,0.0,87,0.00,,---,21.19,VWS V14.01,2013-08-24 07:18:00,
2013-08-24 00:23:00,59.9,56.0,29.88,WNW,292,0.0,0.0,87,0.00,,---,21.19,VWS V14.01,2013-08-24 07:23:00,
2013-08-24 00:29:00,59.7,55.8,29.91,WNW,292,0.0,0.0,87,0.00,,---,21.19,VWS V14.01,2013-08-24 07:29:00,
2013-08-24 00:34:00,59.7,55.8,29.91,WNW,292,0.0,0.0,87,0.00,,---,21.19,VWS V14.01,2013-08-24 07:34:00,
2013-08-24 00:39:00,59.9,56.0,29.91,WNW,292,0.0,0.0,87,0.00,,---,21.19,VWS V14.01,2013-08-24 07:39:00,
2013-08-24 00:44:00,59.9,56.3,29.91,WNW,292,0.0,0.0,88,0.00,,---,21.19,VWS V14.01,2013-08-24 07:44:00,
2013-08-24 00:49:00,59.9,56.0,29.91,WNW,292,0.0,0.0,87,0.00,,---,21.19,VWS V14.01,2013-08-24 07:49:00,
2013-08-24 00:54:00,60.1,56.2,29.91,WNW,292,0.0,0.0,87,0.00,,---,21.19,VWS V14.01,2013-08-24 07:54:00,
2013-08-24 00:59:00,60.1,56.2,29.91,WNW,292,0.0,0.0,87,0.00,,---,21.19,VWS V14.01,2013-08-24 07:59:00,
2013-08-24 01:04:00,60.1,56.2,29.91,WNW,292,0.0,0.0,87,0.00,,---,21.19,VWS V14.01,2013-08-24 08:04:00,
2013-08-24 01:09:00,60.1,56.2,29.91,WNW,292,0.0,0.0,87,0.00,,---,21.19,VWS V14.01,2013-08-24 08:09:00,
2013-08-24 01:14:00,60.1,56.2,29.91,WNW,292,0.0,0.0,87,0.00,,---,21.19,VWS V14.01,2013-08-24 08:14:00,
2013-08-24 01:19:00,60.1,56.2,29.91,WNW,292,0.0,0.0,87,0.00,,---,21.19,VWS V14.01,2013-08-24 08:19:00,
2013-08-24 01:24:00,60.1,56.2,29.91,WNW,292,0.0,0.0,87,0.00,,---,21.19,VWS V14.01,2013-08-24 08:24:00,
2013-08-24 01:29:00,60.1,56.2,29.91,WNW,292,0.0,0.0,87,0.00,,---,21.19,VWS V14.01,2013-08-24 08:29:00,
2013-08-24 01:34:00,60.1,56.2,29.91,WNW,292,0.0,0.0,87,0.00,,---,21.19,VWS V14.01,2013-08-24 08:34:00,
2013-08-24 01:39:00,60.1,55.9,29.91,NE,45,0.0,0.0,86,0.00,,---,21.19,VWS V14.01,2013-08-24 08:39:00,
2013-08-24 01:44:00,59.9,56.3,29.91,NE,45,0.0,0.0,88,0.00,,---,21.19,VWS V14.01,2013-08-24 08:44:00,
2013-08-24 01:49:00,59.9,56.0,29.91,NE,45,0.0,0.0,87,0.00,,---,21.19,VWS V14.01,2013-08-24 08:49:00,
2013-08-24 01:54:00,59.9,56.3,29.91,NW,315,0.0,0.0,88,0.00,,---,21.19,VWS V14.01,2013-08-24 08:54:00,
2013-08-24 01:59:00,59.9,56.3,29.91,NW,315,0.0,0.0,88,0.00,,---,21.19,VWS V14.01,2013-08-24 08:59:00,
2013-08-24 02:04:00,59.7,56.2,29.91,NW,315,0.0,0.0,88,0.00,,---,21.19,VWS V14.01,2013-08-24 09:04:00,
2013-08-24 02:09:00,59.5,56.0,29.91,NW,315,1.1,1.1,88,0.00,,---,21.19,VWS V14.01,2013-08-24 09:09:00,
2013-08-24 02:14:00,59.5,56.3,29.91,NW,315,0.0,0.0,89,0.00,,---,21.19,VWS V14.01,2013-08-24 09:14:00,
2013-08-24 02:19:00,59.4,56.1,29.91,NW,315,0.0,0.0,89,0.00,,---,21.19,VWS V14.01,2013-08-24 09:19:00,
2013-08-24 02:24:00,59.4,56.4,29.91,NW,315,0.0,0.0,90,0.00,,---,21.19,VWS V14.01,2013-08-24 09:24:00,
2013-08-24 02:29:00,59.2,56.2,29.91,NW,315,0.0,0.0,90,0.00,,---,21.19,VWS V14.01,2013-08-24 09:29:00,
2013-08-24 02:34:00,59.2,56.6,29.91,NW,315,0.0,0.0,91,0.00,,---,21.19,VWS V14.01,2013-08-24 09:34:00,
2013-08-24 02:39:00,59.0,56.4,29.91,NW,315,0.0,0.0,91,0.00,,---,21.19,VWS V14.01,2013-08-24 09:39:00,
2013-08-24 02:44:00,59.0,56.7,29.91,NW,315,0.0,0.0,92,0.00,,---,21.19,VWS V14.01,2013-08-24 09:44:00,
2013-08-24 02:49:00,58.8,56.5,29.91,NW,315,0.0,0.0,92,0.00,,---,21.19,VWS V14.01,2013-08-24 09:49:00,
2013-08-24 02:54:00,58.8,56.5,29.91,ENE,68,0.0,0.0,92,0.00,,---,21.19,VWS V14.01,2013-08-24 09:54:00,
2013-08-24 02:59:00,58.8,56.8,29.91,ENE,68,0.0,0.0,93,0.00,,---,21.19,VWS V14.01,2013-08-24 09:59:00,
2013-08-24 03:04:00,58.6,56.6,29.91,ENE,68,0.0,0.0,93,0.00,,---,21.19,VWS V14.01,2013-08-24 10:04:00,
2013-08-24 03:09:00,58.6,56.6,29.91,ENE,68,0.0,0.0,93,0.00,,---,21.19,VWS V14.01,2013-08-24 10:09:00,
2013-08-24 03:14:00,58.6,56.6,29.91,ENE,68,0.0,0.0,93,0.00,,---,21.19,VWS V14.01,2013-08-24 10:14:00,
2013-08-24 03:19:00,58.6,56.9,29.91,ENE,68,0.0,0.0,94,0.00,,---,21.19,VWS V14.01,2013-08-24 10:19:00,
2013-08-24 03:25:00,58.5,56.7,29.91,ENE,68,0.0,0.0,94,0.00,,---,21.19,VWS V14.01,2013-08-24 10:25:00,
2013-08-24 03:30:00,58.5,56.7,29.91,ENE,68,0.0,0.0,94,0.00,,---,21.19,VWS V14.01,2013-08-24 10:30:00,
2013-08-24 03:35:00,58.5,56.7,29.91,ENE,68,0.0,0.0,94,0.00,,---,21.19,VWS V14.01,2013-08-24 10:35:00,
2013-08-24 03:40:00,58.5,56.7,29.91,ENE,68,0.0,0.0,94,0.00,,---,21.19,VWS V14.01,2013-08-24 10:40:00,
2013-08-24 03:45:00,58.5,57.0,29.91,ENE,68,0.0,0.0,95,0.00,,---,21.19,VWS V14.01,2013-08-24 10:45:00,
2013-08-24 03:50:00,58.5,57.0,29.91,ENE,68,0.0,0.0,95,0.00,,---,21.19,VWS V14.01,2013-08-24 10:50:00,
2013-08-24 03:55:00,58.5,57.0,29.91,ENE,68,0.0,0.0,95,0.00,,---,21.19,VWS V14.01,2013-08-24 10:55:00,
2013-08-24 04:00:00,58.5,57.0,29.91,ENE,68,0.0,0.0,95,0.00,,---,21.19,VWS V14.01,2013-08-24 11:00:00,
2013-08-24 04:05:00,58.5,57.0,29.91,ENE,68,0.0,0.0,95,0.00,,---,21.19,VWS V14.01,2013-08-24 11:05:00,
2013-08-24 04:10:00,58.5,57.0,29.91,SW,225,0.0,0.0,95,0.00,,---,21.19,VWS V14.01,2013-08-24 11:10:00,
2013-08-24 04:15:00,58.5,57.3,29.91,WSW,248,0.0,0.0,96,0.00,,---,21.19,VWS V14.01,2013-08-24 11:15:00,
2013-08-24 04:20:00,58.5,57.0,29.91,WSW,248,0.0,0.0,95,0.00,,---,21.19,VWS V14.01,2013-08-24 11:20:00,
2013-08-24 04:25:00,58.5,57.3,29.91,WSW,248,0.0,0.0,96,0.00,,---,21.19,VWS V14.01,2013-08-24 11:25:00,
2013-08-24 04:30:00,58.5,57.3,29.91,WSW,248,0.0,0.0,96,0.00,,---,21.19,VWS V14.01,2013-08-24 11:30:00,
2013-08-24 04:35:00,58.3,57.2,29.91,WSW,248,0.0,0.0,96,0.00,,---,21.19,VWS V14.01,2013-08-24 11:35:00,
2013-08-24 04:40:00,58.3,57.2,29.91,WSW,248,0.0,0.0,96,0.00,,---,21.19,VWS V14.01,2013-08-24 11:40:00,
2013-08-24 04:45:00,58.3,57.2,29.91,WSW,248,0.0,0.0,96,0.00,,---,21.19,VWS V14.01,2013-08-24 11:45:00,
2013-08-24 04:50:00,58.3,57.2,29.91,WSW,248,0.0,0.0,96,0.00,,---,21.19,VWS V14.01,2013-08-24 11:50:00,
2013-08-24 04:55:00,58.3,57.2,29.91,WSW,248,0.0,0.0,96,0.00,,---,21.19,VWS V14.01,2013-08-24 11:55:00,
2013-08-24 05:00:00,58.1,57.3,29.91,WSW,248,0.0,0.0,97,0.00,,---,21.19,VWS V14.01,2013-08-24 12:00:00,
2013-08-24 05:05:00,58.1,57.3,29.91,WSW,248,0.0,0.0,97,0.00,,---,21.19,VWS V14.01,2013-08-24 12:05:00,
2013-08-24 05:10:00,57.9,57.1,29.91,WSW,248,0.0,0.0,97,0.00,,---,21.19,VWS V14.01,2013-08-24 12:10:00,
2013-08-24 05:15:00,57.7,56.9,29.91,WSW,248,0.0,0.0,97,0.00,,---,21.19,VWS V14.01,2013-08-24 12:15:00,
2013-08-24 05:20:00,57.6,56.7,29.91,WSW,248,0.0,0.0,97,0.00,,---,21.19,VWS V14.01,2013-08-24 12:20:00,
2013-08-24 05:25:00,57.6,56.7,29.91,WSW,248,0.0,0.0,97,0.00,,---,21.19,VWS V14.01,2013-08-24 12:25:00,
2013-08-24 05:30:00,57.7,56.9,29.94,WSW,248,0.0,0.0,97,0.00,,---,21.19,VWS V14.01,2013-08-24 12:30:00,
2013-08-24 05:35:00,57.7,56.9,29.94,WSW,248,0.0,0.0,97,0.00,,---,21.19,VWS V14.01,2013-08-24 12:35:00,
2013-08-24 05:40:00,57.7,56.9,29.94,WSW,248,0.0,0.0,97,0.00,,---,21.19,VWS V14.01,2013-08-24 12:40:00,
2013-08-24 05:45:00,57.7,56.9,29.91,WSW,248,0.0,0.0,97,0.00,,---,21.19,VWS V14.01,2013-08-24 12:45:00,
2013-08-24 05:50:00,57.9,57.4,29.91,WSW,248,0.0,0.0,98,0.00,,---,21.19,VWS V14.01,2013-08-24 12:50:00,
2013-08-24 05:55:00,57.7,57.2,29.91,WSW,248,0.0,0.0,98,0.00,,---,21.19,VWS V14.01,2013-08-24 12:55:00,
2013-08-24 06:00:00,57.7,57.2,29.91,WSW,248,0.0,0.0,98,0.00,,---,21.19,VWS V14.01,2013-08-24 13:00:00,
2013-08-24 06:05:00,57.7,57.2,29.91,WSW,248,0.0,0.0,98,0.00,,---,21.19,VWS V14.01,2013-08-24 13:05:00,
2013-08-24 06:10:00,57.6,57.0,29.91,North,0,0.0,0.9,98,0.00,,---,21.19,VWS V14.01,2013-08-24 13:10:00,
2013-08-24 06:15:00,57.7,57.2,29.91,North,0,0.0,0.0,98,0.00,,---,21.19,VWS V14.01,2013-08-24 13:15:00,
2013-08-24 06:20:00,57.7,57.2,29.91,North,0,0.0,0.0,98,0.00,,---,21.19,VWS V14.01,2013-08-24 13:20:00,
2013-08-24 06:25:00,57.7,57.2,29.91,North,0,0.0,0.0,98,0.00,,---,21.19,VWS V14.01,2013-08-24 13:25:00,
2013-08-24 06:30:00,57.7,57.2,29.91,North,0,0.0,0.0,98,0.00,,---,21.19,VWS V14.01,2013-08-24 13:30:00,
2013-08-24 06:35:00,57.6,57.0,29.91,North,0,0.0,0.0,98,0.00,,---,21.19,VWS V14.01,2013-08-24 13:35:00,
2013-08-24 06:40:00,57.6,57.0,29.91,North,0,0.0,0.0,98,0.00,,---,21.19,VWS V14.01,2013-08-24 13:40:00,
2013-08-24 06:45:00,57.6,57.0,29.91,North,0,0.0,0.0,98,0.00,,---,21.19,VWS V14.01,2013-08-24 13:45:00,
2013-08-24 06:50:00,57.7,57.2,29.91,North,0,0.0,0.0,98,0.00,,---,21.19,VWS V14.01,2013-08-24 13:50:00,
2013-08-24 06:56:00,57.7,57.2,29.91,North,0,0.0,0.0,98,0.00,,---,21.19,VWS V14.01,2013-08-24 13:56:00,
2013-08-24 07:01:00,57.9,57.4,29.91,North,0,0.0,0.0,98,0.00,,---,21.19,VWS V14.01,2013-08-24 14:01:00,
2013-08-24 07:06:00,57.9,57.4,29.91,North,0,0.0,0.0,98,0.00,,---,21.19,VWS V14.01,2013-08-24 14:06:00,
2013-08-24 07:11:00,58.1,57.5,29.91,North,0,0.0,0.0,98,0.00,,---,21.19,VWS V14.01,2013-08-24 14:11:00,
2013-08-24 07:16:00,58.1,57.5,29.91,North,0,0.0,0.0,98,0.00,,---,21.19,VWS V14.01,2013-08-24 14:16:00,
2013-08-24 07:21:00,58.1,57.5,29.91,North,0,0.0,0.0,98,0.00,,---,21.19,VWS V14.01,2013-08-24 14:21:00,
2013-08-24 07:26:00,58.1,57.5,29.91,North,0,0.0,0.0,98,0.00,,---,21.19,VWS V14.01,2013-08-24 14:26:00,
2013-08-24 07:31:00,58.1,57.5,29.91,North,0,0.0,0.0,98,0.00,,---,21.19,VWS V14.01,2013-08-24 14:31:00,
2013-08-24 07:36:00,58.3,57.7,29.91,North,0,0.0,0.0,98,0.00,,---,21.19,VWS V14.01,2013-08-24 14:36:00,
2013-08-24 07:41:00,58.6,58.1,29.91,NNE,22,0.0,0.0,98,0.00,,---,21.19,VWS V14.01,2013-08-24 14:41:00,
2013-08-24 07:46:00,58.8,58.3,29.91,NNE,22,0.0,0.0,98,0.00,,---,21.19,VWS V14.01,2013-08-24 14:46:00,
2013-08-24 07:51:00,59.0,58.4,29.91,NNE,22,0.0,0.0,98,0.00,,---,21.19,VWS V14.01,2013-08-24 14:51:00,
2013-08-24 07:56:00,59.4,58.8,29.91,NNE,22,0.0,0.0,98,0.00,,---,21.19,VWS V14.01,2013-08-24 14:56:00,
2013-08-24 08:01:00,59.5,59.0,29.94,NNE,22,0.0,0.0,98,0.00,,---,21.19,VWS V14.01,2013-08-24 15:01:00,
2013-08-24 08:06:00,59.9,59.3,29.94,NNE,22,0.0,0.0,98,0.00,,---,21.19,VWS V14.01,2013-08-24 15:06:00,
2013-08-24 08:11:00,60.1,59.5,29.94,NNE,22,0.0,0.0,98,0.00,,---,21.19,VWS V14.01,2013-08-24 15:11:00,
2013-08-24 08:16:00,60.3,59.4,29.94,NNW,338,0.0,0.0,97,0.00,,---,21.19,VWS V14.01,2013-08-24 15:16:00,
2013-08-24 08:21:00,60.4,59.6,29.94,NW,315,0.0,0.0,97,0.00,,---,21.19,VWS V14.01,2013-08-24 15:21:00,
2013-08-24 08:26:00,61.2,60.0,29.94,West,270,0.0,0.0,96,0.00,,---,21.19,VWS V14.01,2013-08-24 15:26:00,
2013-08-24 08:31:00,61.5,60.4,29.91,SSE,158,0.0,0.0,96,0.00,,---,21.19,VWS V14.01,2013-08-24 15:31:00,
2013-08-24 08:36:00,61.7,60.3,29.91,ENE,68,0.0,0.0,95,0.00,,---,21.19,VWS V14.01,2013-08-24 15:36:00,
2013-08-24 08:41:00,61.9,59.8,29.91,ENE,68,0.0,0.0,93,0.00,,---,21.19,VWS V14.01,2013-08-24 15:41:00,
2013-08-24 08:46:00,61.9,59.8,29.94,East,90,1.1,1.3,93,0.00,,---,21.19,VWS V14.01,2013-08-24 15:46:00,
2013-08-24 08:51:00,62.6,60.2,29.94,ENE,68,1.1,1.3,92,0.00,,---,21.19,VWS V14.01,2013-08-24 15:51:00,
2013-08-24 08:56:00,63.5,59.9,29.94,NNE,22,0.0,0.9,88,0.00,,---,21.19,VWS V14.01,2013-08-24 15:56:00,
2013-08-24 09:01:00,64.2,60.0,29.94,NE,45,1.1,1.1,86,0.00,,---,21.19,VWS V14.01,2013-08-24 16:01:00,
2013-08-24 09:06:00,64.4,59.1,29.94,NNE,22,0.0,1.3,83,0.00,,---,21.19,VWS V14.01,2013-08-24 16:06:00,
2013-08-24 09:11:00,65.8,60.2,29.94,ENE,68,1.3,1.3,82,0.00,,---,21.19,VWS V14.01,2013-08-24 16:11:00,
2013-08-24 09:16:00,68.2,61.4,29.91,NNE,22,1.6,1.6,79,0.00,,---,21.19,VWS V14.01,2013-08-24 16:16:00,
2013-08-24 09:21:00,68.4,59.4,29.91,ENE,68,1.6,2.7,73,0.00,,---,21.19,VWS V14.01,2013-08-24 16:21:00,
2013-08-24 09:26:00,67.3,57.6,29.91,ENE,68,1.6,2.2,71,0.00,,---,21.19,VWS V14.01,2013-08-24 16:26:00,
2013-08-24 09:31:00,67.5,58.1,29.91,South,180,1.6,1.6,72,0.00,,---,21.19,VWS V14.01,2013-08-24 16:31:00,
2013-08-24 09:36:00,70.5,60.7,29.91,NE,45,2.2,2.5,71,0.00,,---,21.19,VWS V14.01,2013-08-24 16:36:00,
2013-08-24 09:41:00,72.7,61.5,29.91,West,270,1.1,1.1,68,0.00,,---,21.19,VWS V14.01,2013-08-24 16:41:00,
2013-08-24 09:46:00,72.5,58.8,29.91,NE,45,0.9,2.9,62,0.00,,---,21.19,VWS V14.01,2013-08-24 16:46:00,
2013-08-24 09:51:00,72.7,59.4,29.91,NE,45,0.9,0.9,63,0.00,,---,21.19,VWS V14.01,2013-08-24 16:51:00,
2013-08-24 09:56:00,71.6,57.5,29.91,West,270,0.0,0.9,61,0.00,,---,21.19,VWS V14.01,2013-08-24 16:56:00,
2013-08-24 10:01:00,70.5,56.4,29.91,South,180,1.1,2.7,61,0.00,,---,21.19,VWS V14.01,2013-08-24 17:01:00,
2013-08-24 10:06:00,70.2,57.0,29.91,ESE,112,1.1,1.3,63,0.00,,---,21.19,VWS V14.01,2013-08-24 17:06:00,
2013-08-24 10:11:00,69.8,54.8,29.91,NNE,22,0.0,0.0,59,0.00,,---,21.19,VWS V14.01,2013-08-24 17:11:00,
2013-08-24 10:17:00,70.0,56.4,29.91,ENE,68,0.9,0.9,62,0.00,,---,21.19,VWS V14.01,2013-08-24 17:17:00,
2013-08-24 10:22:00,70.0,55.9,29.91,East,90,0.0,1.3,61,0.00,,---,21.19,VWS V14.01,2013-08-24 17:22:00,
2013-08-24 10:27:00,70.9,56.8,29.91,SSW,202,1.1,1.1,61,0.00,,---,21.19,VWS V14.01,2013-08-24 17:27:00,
2013-08-24 10:32:00,70.9,57.2,29.91,ENE,68,0.0,1.6,62,0.00,,---,21.19,VWS V14.01,2013-08-24 17:32:00,
2013-08-24 10:37:00,70.2,55.6,29.91,NNE,22,1.1,1.1,60,0.00,,---,21.19,VWS V14.01,2013-08-24 17:37:00,
2013-08-24 10:42:00,69.4,55.0,29.91,NNE,22,0.0,0.0,60,0.00,,---,21.19,VWS V14.01,2013-08-24 17:42:00,
2013-08-24 10:47:00,70.2,56.5,29.91,West,270,2.2,2.2,62,0.00,,---,21.19,VWS V14.01,2013-08-24 17:47:00,
2013-08-24 10:52:00,69.8,54.4,29.91,West,270,2.5,2.5,58,0.00,,---,21.19,VWS V14.01,2013-08-24 17:52:00,
2013-08-24 10:57:00,70.0,55.0,29.91,NE,45,1.6,1.6,59,0.00,,---,21.19,VWS V14.01,2013-08-24 17:57:00,
2013-08-24 11:02:00,70.2,54.2,29.91,NE,45,0.9,1.1,57,0.00,,---,21.19,VWS V14.01,2013-08-24 18:02:00,
2013-08-24 11:07:00,69.8,54.4,29.91,NE,45,0.0,0.0,58,0.00,,---,21.19,VWS V14.01,2013-08-24 18:07:00,
2013-08-24 11:12:00,70.3,54.9,29.91,WNW,292,1.3,1.3,58,0.00,,---,21.19,VWS V14.01,2013-08-24 18:12:00,
2013-08-24 11:17:00,71.6,56.5,29.91,NNE,22,2.0,2.0,59,0.00,,---,21.19,VWS V14.01,2013-08-24 18:17:00,
2013-08-24 11:22:00,72.0,55.9,29.91,WNW,292,1.1,1.1,57,0.00,,---,21.19,VWS V14.01,2013-08-24 18:22:00,
2013-08-24 11:27:00,72.3,55.8,29.91,NE,45,2.9,2.9,56,0.00,,---,21.19,VWS V14.01,2013-08-24 18:27:00,
2013-08-24 11:32:00,72.7,55.1,29.91,NE,45,1.3,1.3,54,0.00,,---,21.19,VWS V14.01,2013-08-24 18:32:00,
2013-08-24 11:37:00,72.9,54.2,29.91,SSE,158,0.9,0.9,52,0.00,,---,21.19,VWS V14.01,2013-08-24 18:37:00,
2013-08-24 11:42:00,72.9,54.2,29.91,SW,225,0.0,0.0,52,0.00,,---,21.19,VWS V14.01,2013-08-24 18:42:00,
2013-08-24 11:47:00,74.1,54.3,29.88,NE,45,3.1,3.1,50,0.00,,---,21.19,VWS V14.01,2013-08-24 18:47:00,
2013-08-24 11:52:00,73.4,53.1,29.88,West,270,2.5,2.5,49,0.00,,---,21.19,VWS V14.01,2013-08-24 18:52:00,
2013-08-24 11:57:00,73.2,50.6,29.88,NNE,22,3.8,3.8,45,0.00,,---,21.19,VWS V14.01,2013-08-24 18:57:00,
2013-08-24 12:02:00,73.0,51.6,29.88,East,90,1.6,1.6,47,0.00,,---,21.19,VWS V14.01,2013-08-24 19:02:00,
2013-08-24 12:07:00,73.4,52.0,29.88,NNE,22,2.7,2.7,47,0.00,,---,21.19,VWS V14.01,2013-08-24 19:07:00,
2013-08-24 12:12:00,72.9,50.9,29.88,West,270,1.3,1.3,46,0.00,,---,21.19,VWS V14.01,2013-08-24 19:12:00,
2013-08-24 12:17:00,73.0,51.6,29.91,West,270,1.1,1.3,47,0.00,,---,21.19,VWS V14.01,2013-08-24 19:17:00,
2013-08-24 12:22:00,74.8,50.2,29.91,East,90,2.0,2.5,42,0.00,,---,21.19,VWS V14.01,2013-08-24 19:22:00,
2013-08-24 12:27:00,73.8,49.9,29.91,NE,45,0.0,1.1,43,0.00,,---,21.19,VWS V14.01,2013-08-24 19:27:00,
2013-08-24 12:32:00,72.5,49.4,29.91,West,270,3.1,4.0,44,0.00,,---,21.19,VWS V14.01,2013-08-24 19:32:00,
2013-08-24 12:37:00,72.0,50.1,29.91,West,270,3.4,3.4,46,0.00,,---,21.19,VWS V14.01,2013-08-24 19:37:00,
2013-08-24 12:42:00,71.6,49.8,29.91,West,270,0.0,0.0,46,0.00,,---,21.19,VWS V14.01,2013-08-24 19:42:00,
2013-08-24 12:47:00,71.8,49.3,29.91,West,270,2.7,2.7,45,0.00,,---,21.19,VWS V14.01,2013-08-24 19:47:00,
2013-08-24 12:52:00,71.2,49.4,29.91,ENE,68,0.0,1.1,46,0.00,,---,21.19,VWS V14.01,2013-08-24 19:52:00,
2013-08-24 12:57:00,71.6,49.2,29.91,SW,225,0.0,2.0,45,0.00,,---,21.19,VWS V14.01,2013-08-24 19:57:00,
2013-08-24 13:02:00,73.6,51.5,29.91,West,270,1.6,1.6,46,0.00,,---,21.19,VWS V14.01,2013-08-24 20:02:00,
2013-08-24 13:07:00,74.1,50.8,29.91,NW,315,0.0,1.6,44,0.00,,---,21.19,VWS V14.01,2013-08-24 20:07:00,
2013-08-24 13:12:00,74.1,50.8,29.91,WNW,292,0.0,1.1,44,0.00,,---,21.19,VWS V14.01,2013-08-24 20:12:00,
2013-08-24 13:17:00,74.5,51.2,29.91,NNE,22,0.0,3.1,44,0.00,,---,21.19,VWS V14.01,2013-08-24 20:17:00,
2013-08-24 13:23:00,75.2,51.8,29.91,NNE,22,0.9,0.9,44,0.00,,---,21.19,VWS V14.01,2013-08-24 20:23:00,
2013-08-24 13:28:00,76.6,51.8,29.91,WSW,248,2.0,2.7,42,0.00,,---,21.19,VWS V14.01,2013-08-24 20:28:00,
2013-08-24 13:33:00,77.2,51.7,29.91,West,270,0.0,0.0,41,0.00,,---,21.19,VWS V14.01,2013-08-24 20:33:00,
2013-08-24 13:38:00,77.0,51.5,29.91,ENE,68,0.9,0.9,41,0.00,,---,21.19,VWS V14.01,2013-08-24 20:38:00,
2013-08-24 13:43:00,76.1,50.7,29.91,ESE,112,0.9,2.0,41,0.00,,---,21.19,VWS V14.01,2013-08-24 20:43:00,
2013-08-24 13:48:00,76.6,51.2,29.91,South,180,2.5,2.5,41,0.00,,---,21.19,VWS V14.01,2013-08-24 20:48:00,
2013-08-24 13:53:00,76.3,51.5,29.91,ENE,68,0.0,0.0,42,0.00,,---,21.19,VWS V14.01,2013-08-24 20:53:00,
2013-08-24 13:58:00,74.5,49.3,29.91,WNW,292,1.3,1.3,41,0.00,,---,21.19,VWS V14.01,2013-08-24 20:58:00,
2013-08-24 14:03:00,73.8,49.9,29.91,WNW,292,1.3,1.3,43,0.00,,---,21.19,VWS V14.01,2013-08-24 21:03:00,
2013-08-24 14:08:00,75.0,52.3,29.91,WNW,292,0.0,0.0,45,0.00,,---,21.19,VWS V14.01,2013-08-24 21:08:00,
2013-08-24 14:13:00,76.6,51.8,29.91,ESE,112,1.6,2.5,42,0.00,,---,21.19,VWS V14.01,2013-08-24 21:13:00,
2013-08-24 14:18:00,75.6,50.2,29.91,West,270,2.2,3.1,41,0.00,,---,21.19,VWS V14.01,2013-08-24 21:18:00,
2013-08-24 14:23:00,75.0,50.4,29.91,East,90,1.1,1.3,42,0.00,,---,21.19,VWS V14.01,2013-08-24 21:23:00,
2013-08-24 14:28:00,74.5,49.9,29.91,SW,225,1.1,2.2,42,0.00,,---,21.19,VWS V14.01,2013-08-24 21:28:00,
2013-08-24 14:33:00,73.2,48.8,29.91,NW,315,1.6,2.7,42,0.00,,---,21.19,VWS V14.01,2013-08-24 21:33:00,
2013-08-24 14:38:00,72.7,48.9,29.91,WNW,292,2.0,4.3,43,0.00,,---,21.19,VWS V14.01,2013-08-24 21:38:00,
2013-08-24 14:43:00,72.3,49.2,29.91,West,270,3.4,3.4,44,0.00,,---,21.19,VWS V14.01,2013-08-24 21:43:00,
2013-08-24 14:48:00,73.2,50.6,29.91,West,270,0.0,1.6,45,0.00,,---,21.19,VWS V14.01,2013-08-24 21:48:00,
2013-08-24 14:53:00,73.6,50.3,29.91,West,270,2.9,2.9,44,0.00,,---,21.19,VWS V14.01,2013-08-24 21:53:00,
2013-08-24 14:58:00,74.5,50.5,29.91,WNW,292,2.9,2.9,43,0.00,,---,21.19,VWS V14.01,2013-08-24 21:58:00,
2013-08-24 15:03:00,76.3,52.2,29.88,West,270,1.1,1.1,43,0.00,,---,21.19,VWS V14.01,2013-08-24 22:03:00,
2013-08-24 15:08:00,76.6,50.5,29.88,ESE,112,0.9,3.4,40,0.00,,---,21.19,VWS V14.01,2013-08-24 22:08:00,
2013-08-24 15:13:00,75.4,48.7,29.88,NW,315,2.7,3.6,39,0.00,,---,21.19,VWS V14.01,2013-08-24 22:13:00,
2013-08-24 15:18:00,75.9,50.5,29.91,West,270,3.4,3.4,41,0.00,,---,21.19,VWS V14.01,2013-08-24 22:18:00,
2013-08-24 15:23:00,75.0,49.1,29.91,NW,315,0.0,2.9,40,0.00,,---,21.19,VWS V14.01,2013-08-24 22:23:00,
2013-08-24 15:28:00,74.3,49.8,29.91,NNE,22,0.9,2.2,42,0.00,,---,21.19,VWS V14.01,2013-08-24 22:28:00,
2013-08-24 15:33:00,74.1,49.6,29.91,West,270,2.2,2.5,42,0.00,,---,21.19,VWS V14.01,2013-08-24 22:33:00,
2013-08-24 15:38:00,74.1,49.6,29.91,NNW,338,0.0,3.4,42,0.00,,---,21.19,VWS V14.01,2013-08-24 22:38:00,
2013-08-24 15:43:00,74.5,49.3,29.91,NE,45,0.0,2.5,41,0.00,,---,21.19,VWS V14.01,2013-08-24 22:43:00,
2013-08-24 15:48:00,73.6,48.5,29.88,WNW,292,1.6,1.6,41,0.00,,---,21.19,VWS V14.01,2013-08-24 22:48:00,
2013-08-24 15:53:00,73.6,49.1,29.88,NNW,338,0.0,0.9,42,0.00,,---,21.19,VWS V14.01,2013-08-24 22:53:00,
2013-08-24 15:58:00,75.2,50.6,29.88,ENE,68,0.0,1.3,42,0.00,,---,21.19,VWS V14.01,2013-08-24 22:58:00,
2013-08-24 16:03:00,74.7,49.4,29.88,NNW,338,0.0,2.5,41,0.00,,---,21.19,VWS V14.01,2013-08-24 23:03:00,
2013-08-24 16:08:00,73.8,48.6,29.88,West,270,2.9,2.9,41,0.00,,---,21.19,VWS V14.01,2013-08-24 23:08:00,
2013-08-24 16:13:00,73.0,48.0,29.88,West,270,3.4,4.7,41,0.00,,---,21.19,VWS V14.01,2013-08-24 23:13:00,
2013-08-24 16:18:00,72.7,48.3,29.88,West,270,0.9,2.5,42,0.00,,---,21.19,VWS V14.01,2013-08-24 23:18:00,
2013-08-24 16:24:00,73.0,48.6,29.88,West,270,2.7,2.7,42,0.00,,---,21.19,VWS V14.01,2013-08-24 23:24:00,
2013-08-24 16:29:00,73.2,48.8,29.88,NW,315,0.0,0.0,42,0.00,,---,21.19,VWS V14.01,2013-08-24 23:29:00,
2013-08-24 16:34:00,73.4,47.6,29.88,West,270,2.7,3.6,40,0.00,,---,21.19,VWS V14.01,2013-08-24 23:34:00,
2013-08-24 16:39:00,72.3,46.7,29.88,WSW,248,0.9,1.1,40,0.00,,---,21.19,VWS V14.01,2013-08-24 23:39:00,
2013-08-24 16:44:00,72.3,47.3,29.85,West,270,0.0,1.3,41,0.00,,---,21.19,VWS V14.01,2013-08-24 23:44:00,
2013-08-24 16:49:00,72.5,48.1,29.85,West,270,1.3,2.0,42,0.00,,---,21.19,VWS V14.01,2013-08-24 23:49:00,
2013-08-24 16:54:00,72.1,47.8,29.85,West,270,3.1,3.1,42,0.00,,---,21.19,VWS V14.01,2013-08-24 23:54:00,
2013-08-24 16:59:00,72.3,48.0,29.88,West,270,1.6,1.6,42,0.00,,---,21.19,VWS V14.01,2013-08-24 23:59:00,
2013-08-24 17:04:00,72.1,47.2,29.88,West,270,1.6,2.5,41,0.00,,---,21.19,VWS V14.01,2013-08-25 00:04:00,
2013-08-24 17:09:00,72.1,46.5,29.88,West,270,3.6,3.6,40,0.00,,---,21.19,VWS V14.01,2013-08-25 00:09:00,
2013-08-24 17:14:00,73.0,48.0,29.85,East,90,0.9,0.9,41,0.00,,---,21.19,VWS V14.01,2013-08-25 00:14:00,
2013-08-24 17:19:00,73.6,48.5,29.85,West,270,2.0,2.0,41,0.00,,---,21.19,VWS V14.01,2013-08-25 00:19:00,
2013-08-24 17:24:00,74.7,49.4,29.85,West,270,2.5,2.5,41,0.00,,---,21.19,VWS V14.01,2013-08-25 00:24:00,
2013-08-24 17:29:00,73.9,47.5,29.85,West,270,2.2,2.5,39,0.00,,---,21.19,VWS V14.01,2013-08-25 00:29:00,
2013-08-24 17:34:00,73.9,48.1,29.85,WNW,292,1.6,1.6,40,0.00,,---,21.19,VWS V14.01,2013-08-25 00:34:00,
2013-08-24 17:39:00,72.9,47.2,29.85,West,270,3.1,4.3,40,0.00,,---,21.19,VWS V14.01,2013-08-25 00:39:00,
2013-08-24 17:44:00,72.0,47.0,29.85,West,270,1.6,3.1,41,0.00,,---,21.19,VWS V14.01,2013-08-25 00:44:00,
2013-08-24 17:49:00,71.1,47.5,29.85,West,270,1.6,1.6,43,0.00,,---,21.19,VWS V14.01,2013-08-25 00:49:00,
2013-08-24 17:54:00,70.5,47.6,29.85,WNW,292,0.9,1.3,44,0.00,,---,21.19,VWS V14.01,2013-08-25 00:54:00,
2013-08-24 17:59:00,70.2,47.2,29.85,NW,315,0.0,0.0,44,0.00,,---,21.19,VWS V14.01,2013-08-25 00:59:00,
2013-08-24 18:04:00,70.0,48.3,29.85,West,270,2.5,4.0,46,0.00,,---,21.19,VWS V14.01,2013-08-25 01:04:00,
2013-08-24 18:09:00,69.6,49.1,29.85,WNW,292,2.7,2.7,48,0.00,,---,21.19,VWS V14.01,2013-08-25 01:09:00,
2013-08-24 18:14:00,69.3,48.8,29.85,WNW,292,2.0,2.0,48,0.00,,---,21.19,VWS V14.01,2013-08-25 01:14:00,
2013-08-24 18:19:00,69.1,49.1,29.85,NW,315,0.9,2.5,49,0.00,,---,21.19,VWS V14.01,2013-08-25 01:19:00,
2013-08-24 18:24:00,68.9,49.0,29.85,WNW,292,1.6,1.6,49,0.00,,---,21.19,VWS V14.01,2013-08-25 01:24:00,
2013-08-24 18:29:00,68.9,49.5,29.85,North,0,0.0,0.0,50,0.00,,---,21.19,VWS V14.01,2013-08-25 01:29:00,
2013-08-24 18:34:00,68.7,49.9,29.85,WNW,292,3.6,3.6,51,0.00,,---,21.19,VWS V14.01,2013-08-25 01:34:00,
2013-08-24 18:39:00,68.5,50.2,29.85,WNW,292,3.1,5.8,52,0.00,,---,21.19,VWS V14.01,2013-08-25 01:39:00,
2013-08-24 18:44:00,68.2,49.9,29.85,West,270,2.0,2.0,52,0.00,,---,21.19,VWS V14.01,2013-08-25 01:44:00,
2013-08-24 18:49:00,67.8,50.1,29.85,WNW,292,2.9,2.9,53,0.00,,---,21.19,VWS V14.01,2013-08-25 01:49:00,
2013-08-24 18:54:00,67.5,49.8,29.85,WNW,292,0.0,0.0,53,0.00,,---,21.19,VWS V14.01,2013-08-25 01:54:00,
2013-08-24 18:59:00,67.3,50.1,29.85,WSW,248,2.5,2.5,54,0.00,,---,21.19,VWS V14.01,2013-08-25 01:59:00,
2013-08-24 19:04:00,67.1,49.9,29.85,West,270,0.0,0.0,54,0.00,,---,21.19,VWS V14.01,2013-08-25 02:04:00,
2013-08-24 19:09:00,66.7,50.1,29.85,NW,315,0.9,1.3,55,0.00,,---,21.19,VWS V14.01,2013-08-25 02:09:00,
2013-08-24 19:14:00,66.4,50.2,29.85,WNW,292,0.0,1.1,56,0.00,,---,21.19,VWS V14.01,2013-08-25 02:14:00,
2013-08-24 19:19:00,66.0,50.4,29.85,West,270,0.0,0.0,57,0.00,,---,21.19,VWS V14.01,2013-08-25 02:19:00,
2013-08-24 19:24:00,66.0,50.8,29.85,West,270,0.0,2.5,58,0.00,,---,21.19,VWS V14.01,2013-08-25 02:24:00,
2013-08-24 19:30:00,65.7,50.5,29.85,NW,315,0.0,0.0,58,0.00,,---,21.19,VWS V14.01,2013-08-25 02:30:00,
2013-08-24 19:35:00,65.5,50.8,29.85,WNW,292,0.0,2.0,59,0.00,,---,21.19,VWS V14.01,2013-08-25 02:35:00,
2013-08-24 19:40:00,65.1,50.9,29.85,West,270,0.0,1.3,60,0.00,,---,21.19,VWS V14.01,2013-08-25 02:40:00,
2013-08-24 19:45:00,64.9,50.7,29.85,NNW,338,0.0,0.0,60,0.00,,---,21.19,VWS V14.01,2013-08-25 02:45:00,
2013-08-24 19:50:00,64.6,50.4,29.85,WNW,292,0.0,1.3,60,0.00,,---,21.19,VWS V14.01,2013-08-25 02:50:00,
2013-08-24 19:55:00,64.4,50.2,29.85,WNW,292,0.0,0.0,60,0.00,,---,21.19,VWS V14.01,2013-08-25 02:55:00,
2013-08-24 20:00:00,64.2,50.5,29.85,WNW,292,1.6,1.6,61,0.00,,---,21.19,VWS V14.01,2013-08-25 03:00:00,
2013-08-24 20:05:00,64.0,50.3,29.85,WNW,292,0.0,0.0,61,0.00,,---,21.19,VWS V14.01,2013-08-25 03:05:00,
2013-08-24 20:10:00,63.7,50.0,29.85,WNW,292,0.0,0.0,61,0.00,,---,21.19,VWS V14.01,2013-08-25 03:10:00,
2013-08-24 20:15:00,63.3,50.1,29.88,WNW,292,0.0,0.0,62,0.00,,---,21.19,VWS V14.01,2013-08-25 03:15:00,
2013-08-24 20:20:00,62.6,49.4,29.88,NNW,338,0.0,0.0,62,0.00,,---,21.19,VWS V14.01,2013-08-25 03:20:00,
2013-08-24 20:25:00,62.1,49.3,29.88,North,0,0.0,0.0,63,0.00,,---,21.19,VWS V14.01,2013-08-25 03:25:00,
2013-08-24 20:30:00,61.7,49.4,29.88,NW,315,0.0,0.0,64,0.00,,---,21.19,VWS V14.01,2013-08-25 03:30:00,
2013-08-24 20:35:00,61.3,49.5,29.88,NW,315,0.0,0.0,65,0.00,,---,21.19,VWS V14.01,2013-08-25 03:35:00,
2013-08-24 20:40:00,61.0,49.5,29.88,NW,315,0.0,0.0,66,0.00,,---,21.19,VWS V14.01,2013-08-25 03:40:00,
2013-08-24 20:45:00,60.6,49.6,29.88,NW,315,0.0,0.0,67,0.00,,---,21.19,VWS V14.01,2013-08-25 03:45:00,
2013-08-24 20:50:00,60.3,49.7,29.88,NW,315,0.0,0.0,68,0.00,,---,21.19,VWS V14.01,2013-08-25 03:50:00,
2013-08-24 20:55:00,59.9,49.3,29.88,NW,315,0.0,0.0,68,0.00,,---,21.19,VWS V14.01,2013-08-25 03:55:00,
2013-08-24 21:00:00,59.7,49.5,29.91,NW,315,0.0,0.0,69,0.00,,---,21.19,VWS V14.01,2013-08-25 04:00:00,
2013-08-24 21:01:00,59.7,49.5,29.91,NW,315,0.0,0.0,69,0.00,,---,21.19,VWS V14.01,2013-08-25 04:01:00,
2013-08-24 21:02:00,59.7,49.5,29.91,NW,315,0.0,0.0,69,0.00,,---,21.19,VWS V14.01,2013-08-25 04:02:00,
2013-08-24 21:03:00,59.5,49.8,29.91,NW,315,0.0,0.0,70,0.00,,---,21.19,VWS V14.01,2013-08-25 04:03:00,
2013-08-24 21:05:00,59.4,49.6,29.91,NW,315,0.0,0.0,70,0.00,,---,21.19,VWS V14.01,2013-08-25 04:05:00,
2013-08-24 21:10:00,59.2,49.8,29.91,NW,315,0.0,0.0,71,0.00,,---,21.19,VWS V14.01,2013-08-25 04:10:00,
2013-08-24 21:15:00,58.8,49.8,29.91,NW,315,0.0,0.0,72,0.00,,---,21.19,VWS V14.01,2013-08-25 04:15:00,
2013-08-24 21:20:00,58.3,49.3,29.91,NW,315,0.0,0.0,72,0.00,,---,21.19,VWS V14.01,2013-08-25 04:20:00,
2013-08-24 21:25:00,58.1,49.5,29.91,NW,315,0.0,0.0,73,0.00,,---,21.19,VWS V14.01,2013-08-25 04:25:00,
2013-08-24 21:30:00,58.1,49.9,29.91,NW,315,0.0,0.0,74,0.00,,---,21.19,VWS V14.01,2013-08-25 04:30:00,
2013-08-24 21:35:00,57.7,49.9,29.91,NW,315,0.0,0.0,75,0.00,,---,21.19,VWS V14.01,2013-08-25 04:35:00,
2013-08-24 21:40:00,57.6,50.4,29.91,NW,315,0.0,0.0,77,0.00,,---,21.19,VWS V14.01,2013-08-25 04:40:00,
2013-08-24 21:45:00,57.4,50.6,29.91,NW,315,0.0,0.0,78,0.00,,---,21.19,VWS V14.01,2013-08-25 04:45:00,
2013-08-24 21:50:00,57.4,50.9,29.91,ESE,112,0.0,0.0,79,0.00,,---,21.19,VWS V14.01,2013-08-25 04:50:00,
2013-08-24 21:55:00,57.4,51.3,29.91,SSE,158,0.0,0.0,80,0.00,,---,21.19,VWS V14.01,2013-08-25 04:55:00,
2013-08-24 22:00:00,57.2,51.1,29.88,SSE,158,0.0,0.0,80,0.00,,---,21.19,VWS V14.01,2013-08-25 05:00:00,
2013-08-24 22:05:00,57.4,51.6,29.88,SSE,158,0.0,0.0,81,0.00,,---,21.19,VWS V14.01,2013-08-25 05:05:00,
2013-08-24 22:10:00,57.2,51.8,29.88,SSE,158,0.0,0.0,82,0.00,,---,21.19,VWS V14.01,2013-08-25 05:10:00,
2013-08-24 22:15:00,57.2,51.8,29.88,SSE,158,0.0,0.0,82,0.00,,---,21.19,VWS V14.01,2013-08-25 05:15:00,
2013-08-24 22:20:00,57.0,51.6,29.88,SSE,158,0.0,0.0,82,0.00,,---,21.19,VWS V14.01,2013-08-25 05:20:00,
2013-08-24 22:25:00,56.8,51.4,29.88,SSE,158,0.0,0.0,82,0.00,,---,21.19,VWS V14.01,2013-08-25 05:25:00,
2013-08-24 22:30:00,56.8,51.7,29.91,SSE,158,0.0,0.0,83,0.00,,---,21.19,VWS V14.01,2013-08-25 05:30:00,
2013-08-24 22:35:00,56.8,51.7,29.91,SSE,158,0.0,0.0,83,0.00,,---,21.19,VWS V14.01,2013-08-25 05:35:00,
2013-08-24 22:40:00,56.7,51.6,29.91,SSE,158,0.0,0.0,83,0.00,,---,21.19,VWS V14.01,2013-08-25 05:40:00,
2013-08-24 22:45:00,56.5,51.7,29.91,SSE,158,0.0,0.0,84,0.00,,---,21.19,VWS V14.01,2013-08-25 05:45:00,
2013-08-24 22:50:00,56.3,51.5,29.91,SSE,158,0.0,0.0,84,0.00,,---,21.19,VWS V14.01,2013-08-25 05:50:00,
2013-08-24 22:55:00,56.1,51.4,29.91,SSE,158,0.0,0.0,84,0.00,,---,21.19,VWS V14.01,2013-08-25 05:55:00,
2013-08-24 23:00:00,55.9,51.2,29.91,SSE,158,0.0,0.0,84,0.00,,---,21.19,VWS V14.01,2013-08-25 06:00:00,
2013-08-24 23:05:00,55.9,51.2,29.91,SSE,158,0.0,0.0,84,0.00,,---,21.19,VWS V14.01,2013-08-25 06:05:00,
2013-08-24 23:10:00,55.8,51.0,29.91,SSE,158,0.0,0.0,84,0.00,,---,21.19,VWS V14.01,2013-08-25 06:10:00,
2013-08-24 23:15:00,55.6,51.2,29.91,SSE,158,0.0,0.0,85,0.00,,---,21.19,VWS V14.01,2013-08-25 06:15:00,
2013-08-24 23:20:00,55.4,51.0,29.91,SSE,158,0.0,0.0,85,0.00,,---,21.19,VWS V14.01,2013-08-25 06:20:00,
2013-08-24 23:25:00,55.2,51.1,29.91,SSE,158,0.0,0.0,86,0.00,,---,21.19,VWS V14.01,2013-08-25 06:25:00,
2013-08-24 23:31:00,55.0,51.2,29.91,SSE,158,0.0,0.0,87,0.00,,---,21.19,VWS V14.01,2013-08-25 06:31:00,
2013-08-24 23:36:00,54.9,51.1,29.91,SSE,158,0.0,0.0,87,0.00,,---,21.19,VWS V14.01,2013-08-25 06:36:00,
2013-08-24 23:41:00,54.7,50.9,29.91,SSE,158,0.0,0.0,87,0.00,,---,21.19,VWS V14.01,2013-08-25 06:41:00,
2013-08-24 23:46:00,54.5,51.0,29.91,SSE,158,0.0,0.0,88,0.00,,---,21.19,VWS V14.01,2013-08-25 06:46:00,
2013-08-24 23:51:00,54.5,51.0,29.91,SSE,158,0.0,0.0,88,0.00,,---,0.00,VWS V14.01,2013-08-25 06:51:00,
2013-08-24 23:56:00,54.3,50.8,29.91,East,90,0.0,0.0,88,0.00,,---,0.00,VWS V14.01,2013-08-25 06:56:00,